Regional Weather Roundup
Issued by NWS

Home | Current Version | Previous Version | Text Only | Print | Product List | Glossary Off
Versions: 1 2 3 4 5 6 7 8 9 10 11 12 13 14 15 16 17 18 19 20 21 22 23 24 25 26 27 28 29 30 31 32 33 34 35 36 37 38 39 40 41 42 43 44 45 46 47 48 49 50

466
ASUS44 KMEG 250600
RWRTN
TENNESSEE HOURLY STATE WEATHER ROUNDUP
NATIONAL WEATHER SERVICE MEMPHIS TN
100 AM CDT WED APR 25 2018

TNZ002-004-019-021-049-052-054-088>092-250700-
WEST TENNESSEE

CITY           SKY/WX    TMP DP  RH WIND       PRES   REMARKS
MEMPHIS INTL   FAIR      54  54 100 CALM      30.02F
NWS MEMPHIS      N/A     52 N/A N/A MISG        N/A
JACKSON        FAIR      55  54  96 NW3       30.01S
DYERSBURG      FAIR      54  54 100 W3        30.02S FOG
$$

TNZ008-025-027-028-033-062-065-066-250700-
NORTH MIDDLE TENNESSEE

CITY           SKY/WX    TMP DP  RH WIND       PRES   REMARKS
NASHVILLE      MOCLDY    57  52  83 NW5       29.96F
CLARKSVILLE    CLOUDY    55  52  89 NW3       29.96F
SMYRNA         CLOUDY    57  53  86 NW8       29.96F
CROSSVILLE     CLOUDY    52  50  93 NW7       29.92F
$$

TNZ061-075-076-078-094-096-097-250700-
SOUTH MIDDLE TENNESSEE

CITY           SKY/WX    TMP DP  RH WIND       PRES   REMARKS
$$

TNZ017-018-042-046-047-250700-
NORTHEAST TENNESSEE

CITY           SKY/WX    TMP DP  RH WIND       PRES   REMARKS
TRI CITIES     CLOUDY    55  55 100 W5        29.84F
$$

TNZ012-013-036-069-073-074-250700-
CENTRAL EAST TENNESSEE

CITY           SKY/WX    TMP DP  RH WIND       PRES   REMARKS
KNOXVILLE      MOCLDY    57  55  93 W3        29.87S
OAK RIDGE      CLOUDY    57  57 100 CALM      29.89F
$$

TNZ083-085-099-250700-
SOUTHEAST TENNESSEE

CITY           SKY/WX    TMP DP  RH WIND       PRES   REMARKS
CHATTANOOGA    MOCLDY    60  52  74 W8        29.91F
$$

SKY/WX REPORTED AS FAIR MEANS FEW OR NO CLOUDS BELOW
12 THOUSAND FEET.





USA.gov is the U.S. government's official web portal to all federal, state and local government web resources and services.